contact:dominique.lefevre@mio.osupytheas.fr, maurice.libes@osupytheas.fr, didier.mallarino@osupytheas.fr
Project:EMSO http://www.emso-fr.org/EMSO-France
Depth: 2436.0 m
Title:EMSO Ligure Ouest : Data MII capteur MICROCAT
DateTime_Computer,Latitude,Longitude,Temperature,Conductivity,Pressure,DateTime_Instrument
DateTime_Computer,Latitude,Longitude,degC,S m-1,dbar,DateTime_Instrument
2020-05-31T00:01:55Z,42.805,6.029,13.2968,4.59971,2470.04,2020-5-31T02:02:39Z
2020-05-31T00:04:59Z,42.805,6.029,13.2971,4.59973,2470.077,2020-5-31T02:05:42Z
2020-05-31T00:08:02Z,42.805,6.029,13.2972,4.59971,2470.077,2020-5-31T02:08:45Z
2020-05-31T00:11:05Z,42.805,6.029,13.2967,4.59972,2470.04,2020-5-31T02:11:48Z
2020-05-31T00:14:08Z,42.805,6.029,13.2967,4.59973,2470.077,2020-5-31T02:14:51Z
2020-05-31T00:17:12Z,42.805,6.029,13.2971,4.59972,2470.087,2020-5-31T02:17:55Z
2020-05-31T00:20:15Z,42.805,6.029,13.2969,4.59971,2470.077,2020-5-31T02:20:58Z
2020-05-31T00:23:18Z,42.805,6.029,13.2968,4.59971,2470.063,2020-5-31T02:24:01Z
2020-05-31T00:26:21Z,42.805,6.029,13.2971,4.59973,2470.087,2020-5-31T02:27:05Z
2020-05-31T00:29:25Z,42.805,6.029,13.2971,4.59973,2470.087,2020-5-31T02:30:08Z
2020-05-31T00:32:28Z,42.805,6.029,13.2971,4.59973,2470.1,2020-5-31T02:33:11Z
2020-05-31T00:35:31Z,42.805,6.029,13.2968,4.59972,2470.077,2020-5-31T02:36:14Z
2020-05-31T00:38:34Z,42.805,6.029,13.2970,4.59973,2470.063,2020-5-31T02:39:18Z
2020-05-31T00:41:38Z,42.805,6.029,13.2970,4.59973,2470.087,2020-5-31T02:42:21Z
2020-05-31T00:44:41Z,42.805,6.029,13.2969,4.59973,2470.11,2020-5-31T02:45:24Z
2020-05-31T00:47:44Z,42.805,6.029,13.2974,4.59973,2470.087,2020-5-31T02:48:27Z
2020-05-31T00:50:47Z,42.805,6.029,13.2971,4.59973,2470.063,2020-5-31T02:51:31Z
2020-05-31T00:53:51Z,42.805,6.029,13.2974,4.59973,2470.124,2020-5-31T02:54:34Z
2020-05-31T00:56:54Z,42.805,6.029,13.2970,4.59973,2470.11,2020-5-31T02:57:37Z
2020-05-31T00:59:57Z,42.805,6.029,13.2974,4.59973,2470.133,2020-5-31T03:00:40Z
2020-05-31T01:03:00Z,42.805,6.029,13.2968,4.59973,2470.1,2020-5-31T03:03:43Z
2020-05-31T01:06:04Z,42.805,6.029,13.2967,4.59973,2470.124,2020-5-31T03:06:47Z
2020-05-31T01:09:07Z,42.805,6.029,13.2972,4.59974,2470.11,2020-5-31T03:09:50Z
2020-05-31T01:12:10Z,42.805,6.029,13.2968,4.59973,2470.087,2020-5-31T03:12:53Z
2020-05-31T01:15:14Z,42.805,6.029,13.2967,4.59974,2470.11,2020-5-31T03:15:57Z
2020-05-31T01:18:17Z,42.805,6.029,13.2971,4.59974,2470.087,2020-5-31T03:19:00Z
2020-05-31T01:21:20Z,42.805,6.029,13.2971,4.59973,2470.124,2020-5-31T03:22:03Z
2020-05-31T01:24:23Z,42.805,6.029,13.2971,4.59973,2470.087,2020-5-31T03:25:06Z
2020-05-31T01:27:26Z,42.805,6.029,13.2969,4.59974,2470.087,2020-5-31T03:28:10Z
2020-05-31T01:30:30Z,42.805,6.029,13.2970,4.59973,2470.133,2020-5-31T03:31:13Z
2020-05-31T01:33:33Z,42.805,6.029,13.2970,4.59973,2470.11,2020-5-31T03:34:16Z
2020-05-31T01:36:36Z,42.805,6.029,13.2968,4.59973,2470.1,2020-5-31T03:37:20Z
2020-05-31T01:39:40Z,42.805,6.029,13.2968,4.59972,2470.1,2020-5-31T03:40:23Z
2020-05-31T01:42:43Z,42.805,6.029,13.2971,4.59973,2470.11,2020-5-31T03:43:26Z
2020-05-31T01:45:46Z,42.805,6.029,13.2972,4.59973,2470.133,2020-5-31T03:46:29Z
2020-05-31T01:48:49Z,42.805,6.029,13.2971,4.59973,2470.11,2020-5-31T03:49:32Z
2020-05-31T01:51:52Z,42.805,6.029,13.2968,4.59973,2470.11,2020-5-31T03:52:36Z
2020-05-31T01:54:56Z,42.805,6.029,13.2969,4.59972,2470.087,2020-5-31T03:55:39Z
2020-05-31T01:57:59Z,42.805,6.029,13.2970,4.59973,2470.124,2020-5-31T03:58:42Z
2020-05-31T02:01:03Z,42.805,6.029,13.2969,4.59972,2470.087,2020-5-31T04:01:46Z
2020-05-31T02:04:06Z,42.805,6.029,13.2971,4.59973,2470.077,2020-5-31T04:04:49Z
2020-05-31T02:07:09Z,42.805,6.029,13.2969,4.59972,2470.063,2020-5-31T04:07:52Z
2020-05-31T02:10:12Z,42.805,6.029,13.2974,4.59972,2470.11,2020-5-31T04:10:55Z
2020-05-31T02:13:15Z,42.805,6.029,13.2972,4.59973,2470.1,2020-5-31T04:13:59Z
2020-05-31T02:16:19Z,42.805,6.029,13.2971,4.59972,2470.087,2020-5-31T04:17:02Z
2020-05-31T02:19:22Z,42.805,6.029,13.2968,4.59973,2470.063,2020-5-31T04:20:05Z
2020-05-31T02:22:25Z,42.805,6.029,13.2971,4.59973,2470.087,2020-5-31T04:23:09Z
2020-05-31T02:25:29Z,42.805,6.029,13.2971,4.59973,2470.073,2020-5-31T04:26:12Z
2020-05-31T02:28:32Z,42.805,6.029,13.2968,4.59974,2470.087,2020-5-31T04:29:15Z
2020-05-31T02:31:35Z,42.805,6.029,13.2971,4.59973,2470.1,2020-5-31T04:32:18Z
2020-05-31T02:34:38Z,42.805,6.029,13.2972,4.59973,2470.053,2020-5-31T04:35:21Z
2020-05-31T02:37:41Z,42.805,6.029,13.2969,4.59973,2470.087,2020-5-31T04:38:25Z
2020-05-31T02:40:45Z,42.805,6.029,13.2971,4.59973,2470.087,2020-5-31T04:41:28Z
2020-05-31T02:43:48Z,42.805,6.029,13.2970,4.59971,2470.11,2020-5-31T04:44:31Z
2020-05-31T02:46:51Z,42.805,6.029,13.2970,4.59973,2470.11,2020-5-31T04:47:34Z
2020-05-31T02:49:54Z,42.805,6.029,13.2967,4.59972,2470.1,2020-5-31T04:50:38Z
2020-05-31T02:52:58Z,42.805,6.029,13.2968,4.59972,2470.11,2020-5-31T04:53:41Z
2020-05-31T02:56:01Z,42.805,6.029,13.2970,4.59972,2470.087,2020-5-31T04:56:44Z
2020-05-31T02:59:04Z,42.805,6.029,13.2968,4.59971,2470.087,2020-5-31T04:59:47Z
2020-05-31T03:02:07Z,42.805,6.029,13.2968,4.59971,2470.087,2020-5-31T05:02:51Z
2020-05-31T03:05:11Z,42.805,6.029,13.2969,4.59970,2470.1,2020-5-31T05:05:54Z
2020-05-31T03:08:14Z,42.805,6.029,13.2971,4.59971,2470.077,2020-5-31T05:08:57Z
2020-05-31T03:11:17Z,42.805,6.029,13.2968,4.59971,2470.087,2020-5-31T05:12:00Z
2020-05-31T03:14:20Z,42.805,6.029,13.2968,4.59973,2470.087,2020-5-31T05:15:04Z
2020-05-31T03:17:24Z,42.805,6.029,13.2970,4.59972,2470.087,2020-5-31T05:18:07Z
2020-05-31T03:20:27Z,42.805,6.029,13.2970,4.59973,2470.077,2020-5-31T05:21:10Z
2020-05-31T03:23:30Z,42.805,6.029,13.2971,4.59974,2470.087,2020-5-31T05:24:13Z
2020-05-31T03:26:33Z,42.805,6.029,13.2969,4.59972,2470.087,2020-5-31T05:27:16Z
2020-05-31T03:29:37Z,42.805,6.029,13.2969,4.59973,2470.077,2020-5-31T05:30:20Z
2020-05-31T03:32:40Z,42.805,6.029,13.2970,4.59971,2470.077,2020-5-31T05:33:23Z
2020-05-31T03:35:43Z,42.805,6.029,13.2971,4.59972,2470.087,2020-5-31T05:36:26Z
2020-05-31T03:38:46Z,42.805,6.029,13.2969,4.59973,2470.11,2020-5-31T05:39:30Z
2020-05-31T03:41:50Z,42.805,6.029,13.2972,4.59971,2470.087,2020-5-31T05:42:33Z
2020-05-31T03:44:53Z,42.805,6.029,13.2970,4.59973,2470.124,2020-5-31T05:45:36Z
2020-05-31T03:47:56Z,42.805,6.029,13.2968,4.59972,2470.087,2020-5-31T05:48:39Z
2020-05-31T03:50:59Z,42.805,6.029,13.2969,4.59972,2470.1,2020-5-31T05:51:42Z
2020-05-31T03:54:02Z,42.805,6.029,13.2968,4.59973,2470.1,2020-5-31T05:54:46Z
2020-05-31T03:57:06Z,42.805,6.029,13.2971,4.59971,2470.063,2020-5-31T05:57:49Z
2020-05-31T04:00:09Z,42.805,6.029,13.2970,4.59970,2470.087,2020-5-31T06:00:52Z
2020-05-31T04:03:12Z,42.805,6.029,13.2971,4.59973,2470.087,2020-5-31T06:03:55Z
2020-05-31T04:06:15Z,42.805,6.029,13.2971,4.59972,2470.087,2020-5-31T06:06:59Z
2020-05-31T04:09:19Z,42.805,6.029,13.2970,4.59973,2470.087,2020-5-31T06:10:02Z
2020-05-31T04:12:22Z,42.805,6.029,13.2971,4.59976,2470.063,2020-5-31T06:13:05Z
2020-05-31T04:15:25Z,42.805,6.029,13.2969,4.59971,2470.077,2020-5-31T06:16:08Z
2020-05-31T04:18:28Z,42.805,6.029,13.2968,4.59973,2470.087,2020-5-31T06:19:12Z
2020-05-31T04:21:32Z,42.805,6.029,13.2974,4.59973,2470.1,2020-5-31T06:22:15Z
2020-05-31T04:24:35Z,42.805,6.029,13.2971,4.59972,2470.063,2020-5-31T06:25:18Z
2020-05-31T04:27:38Z,42.805,6.029,13.2967,4.59973,2470.04,2020-5-31T06:28:21Z
2020-05-31T04:30:41Z,42.805,6.029,13.2972,4.59972,2470.087,2020-5-31T06:31:24Z
2020-05-31T04:33:44Z,42.805,6.029,13.2971,4.59973,2470.077,2020-5-31T06:34:28Z
2020-05-31T04:36:48Z,42.805,6.029,13.2971,4.59973,2470.1,2020-5-31T06:37:31Z
2020-05-31T04:39:51Z,42.805,6.029,13.2970,4.59971,2470.063,2020-5-31T06:40:34Z
2020-05-31T04:42:54Z,42.805,6.029,13.2970,4.59973,2470.087,2020-5-31T06:43:37Z
2020-05-31T04:45:57Z,42.805,6.029,13.2969,4.59973,2470.077,2020-5-31T06:46:41Z
2020-05-31T04:49:01Z,42.805,6.029,13.2969,4.59972,2470.04,2020-5-31T06:49:44Z
2020-05-31T04:52:04Z,42.805,6.029,13.2968,4.59972,2470.1,2020-5-31T06:52:47Z
2020-05-31T04:55:07Z,42.805,6.029,13.2972,4.59971,2470.063,2020-5-31T06:55:51Z
2020-05-31T04:58:11Z,42.805,6.029,13.2969,4.59971,2470.124,2020-5-31T06:58:54Z
2020-05-31T05:01:14Z,42.805,6.029,13.2968,4.59973,2470.063,2020-5-31T07:01:57Z
2020-05-31T05:04:17Z,42.805,6.029,13.2974,4.59975,2470.053,2020-5-31T07:05:00Z
2020-05-31T05:07:20Z,42.805,6.029,13.2971,4.59973,2470.063,2020-5-31T07:08:03Z
2020-05-31T05:10:23Z,42.805,6.029,13.2970,4.59972,2470.077,2020-5-31T07:11:07Z
2020-05-31T05:13:27Z,42.805,6.029,13.2969,4.59971,2470.063,2020-5-31T07:14:10Z
2020-05-31T05:16:30Z,42.805,6.029,13.2970,4.59973,2470.053,2020-5-31T07:17:13Z
2020-05-31T05:19:33Z,42.805,6.029,13.2970,4.59971,2470.007,2020-5-31T07:20:16Z
2020-05-31T05:22:36Z,42.805,6.029,13.2974,4.59972,2470.04,2020-5-31T07:23:20Z
2020-05-31T05:25:40Z,42.805,6.029,13.2973,4.59972,2470.04,2020-5-31T07:26:23Z
2020-05-31T05:28:43Z,42.805,6.029,13.2967,4.59973,2470.053,2020-5-31T07:29:26Z
2020-05-31T05:31:46Z,42.805,6.029,13.2971,4.59969,2470.063,2020-5-31T07:32:29Z
2020-05-31T05:34:49Z,42.805,6.029,13.2969,4.59973,2470.063,2020-5-31T07:35:33Z
2020-05-31T05:37:53Z,42.805,6.029,13.2971,4.59973,2470.04,2020-5-31T07:38:36Z
2020-05-31T05:40:56Z,42.805,6.029,13.2969,4.59972,2470.053,2020-5-31T07:41:39Z
2020-05-31T05:43:59Z,42.805,6.029,13.2967,4.59973,2470.063,2020-5-31T07:44:42Z
2020-05-31T05:47:02Z,42.805,6.029,13.2970,4.59973,2470.017,2020-5-31T07:47:46Z
2020-05-31T05:50:06Z,42.805,6.029,13.2967,4.59971,2470.053,2020-5-31T07:50:49Z
2020-05-31T05:53:09Z,42.805,6.029,13.2971,4.59972,2470.03,2020-5-31T07:53:52Z
2020-05-31T05:56:12Z,42.805,6.029,13.2967,4.59972,2470.017,2020-5-31T07:56:55Z
2020-05-31T05:59:15Z,42.805,6.029,13.2969,4.59973,2470.017,2020-5-31T07:59:59Z
2020-05-31T06:02:19Z,42.805,6.029,13.2967,4.59976,2470.03,2020-5-31T08:03:02Z
2020-05-31T06:05:22Z,42.805,6.029,13.2971,4.59972,2470.053,2020-5-31T08:06:05Z
2020-05-31T06:08:25Z,42.805,6.029,13.2970,4.59973,2469.993,2020-5-31T08:09:08Z
2020-05-31T06:11:28Z,42.805,6.029,13.2971,4.59971,2470.017,2020-5-31T08:12:12Z
2020-05-31T06:14:32Z,42.805,6.029,13.2971,4.59972,2470.017,2020-5-31T08:15:15Z
2020-05-31T06:17:35Z,42.805,6.029,13.2971,4.59973,2470.053,2020-5-31T08:18:18Z
2020-05-31T06:20:38Z,42.805,6.029,13.2967,4.59974,2470.03,2020-5-31T08:21:21Z
2020-05-31T06:23:42Z,42.805,6.029,13.2968,4.59972,2470.007,2020-5-31T08:24:25Z
2020-05-31T06:26:45Z,42.805,6.029,13.2972,4.59971,2470.017,2020-5-31T08:27:28Z
2020-05-31T06:29:48Z,42.805,6.029,13.2968,4.59971,2469.97,2020-5-31T08:30:31Z
2020-05-31T06:32:51Z,42.805,6.029,13.2967,4.59974,2469.97,2020-5-31T08:33:35Z
2020-05-31T06:35:55Z,42.805,6.029,13.2971,4.59971,2470.017,2020-5-31T08:36:38Z
2020-05-31T06:38:58Z,42.805,6.029,13.2967,4.59973,2470.017,2020-5-31T08:39:41Z
2020-05-31T06:42:01Z,42.805,6.029,13.2971,4.59971,2469.993,2020-5-31T08:42:44Z
2020-05-31T06:45:04Z,42.805,6.029,13.2972,4.59973,2470.017,2020-5-31T08:45:48Z
2020-05-31T06:48:08Z,42.805,6.029,13.2971,4.59972,2469.984,2020-5-31T08:48:51Z
2020-05-31T06:51:11Z,42.805,6.029,13.2966,4.59972,2469.984,2020-5-31T08:51:54Z
2020-05-31T06:54:14Z,42.805,6.029,13.2970,4.59973,2469.993,2020-5-31T08:54:57Z
2020-05-31T06:57:17Z,42.805,6.029,13.2968,4.59973,2470.007,2020-5-31T08:58:00Z
2020-05-31T07:00:21Z,42.805,6.029,13.2968,4.59972,2470.017,2020-5-31T09:01:04Z
2020-05-31T07:03:24Z,42.805,6.029,13.2971,4.59974,2469.993,2020-5-31T09:04:07Z
2020-05-31T07:06:27Z,42.805,6.029,13.2971,4.59974,2470.017,2020-5-31T09:07:10Z
2020-05-31T07:09:30Z,42.805,6.029,13.2970,4.59973,2469.984,2020-5-31T09:10:13Z
2020-05-31T07:12:33Z,42.805,6.029,13.2967,4.59973,2469.984,2020-5-31T09:13:17Z
2020-05-31T07:15:37Z,42.805,6.029,13.2970,4.59969,2469.97,2020-5-31T09:16:20Z
2020-05-31T07:18:40Z,42.805,6.029,13.2970,4.59973,2470.007,2020-5-31T09:19:23Z
2020-05-31T07:21:43Z,42.805,6.029,13.2971,4.59971,2469.947,2020-5-31T09:22:26Z
2020-05-31T07:24:46Z,42.805,6.029,13.2974,4.59970,2470.03,2020-5-31T09:25:30Z
2020-05-31T07:27:50Z,42.805,6.029,13.2967,4.59970,2470.007,2020-5-31T09:28:33Z
2020-05-31T07:30:53Z,42.805,6.029,13.2970,4.59973,2469.96,2020-5-31T09:31:36Z
2020-05-31T07:33:56Z,42.805,6.029,13.2967,4.59973,2469.96,2020-5-31T09:34:39Z
2020-05-31T07:36:59Z,42.805,6.029,13.2971,4.59974,2469.947,2020-5-31T09:37:43Z
2020-05-31T07:40:03Z,42.805,6.029,13.2971,4.59972,2469.97,2020-5-31T09:40:46Z
2020-05-31T07:43:06Z,42.805,6.029,13.2969,4.59973,2469.97,2020-5-31T09:43:49Z
2020-05-31T07:46:09Z,42.805,6.029,13.2969,4.59972,2469.96,2020-5-31T09:46:52Z
2020-05-31T07:49:12Z,42.805,6.029,13.2969,4.59973,2469.956,2020-5-31T09:49:56Z
2020-05-31T07:52:16Z,42.805,6.029,13.2967,4.59973,2469.97,2020-5-31T09:52:59Z
2020-05-31T07:55:19Z,42.805,6.029,13.2972,4.59974,2469.947,2020-5-31T09:56:02Z
2020-05-31T07:58:22Z,42.805,6.029,13.2969,4.59973,2469.984,2020-5-31T09:59:05Z
2020-05-31T08:01:25Z,42.805,6.029,13.2971,4.59971,2469.947,2020-5-31T10:02:09Z
2020-05-31T08:04:29Z,42.805,6.029,13.2968,4.59971,2469.923,2020-5-31T10:05:12Z
2020-05-31T08:07:32Z,42.805,6.029,13.2969,4.59973,2469.984,2020-5-31T10:08:15Z
2020-05-31T08:10:35Z,42.805,6.029,13.2969,4.59971,2469.97,2020-5-31T10:11:19Z
2020-05-31T08:13:39Z,42.805,6.029,13.2968,4.59972,2469.97,2020-5-31T10:14:22Z
2020-05-31T08:16:42Z,42.805,6.029,13.2964,4.59971,2469.97,2020-5-31T10:17:25Z
2020-05-31T08:19:45Z,42.805,6.029,13.2967,4.59970,2469.97,2020-5-31T10:20:28Z
2020-05-31T08:22:48Z,42.805,6.029,13.2968,4.59972,2469.984,2020-5-31T10:23:32Z
2020-05-31T08:25:52Z,42.805,6.029,13.2968,4.59971,2469.984,2020-5-31T10:26:35Z
2020-05-31T08:28:55Z,42.805,6.029,13.2968,4.59972,2469.933,2020-5-31T10:29:38Z
2020-05-31T08:31:58Z,42.805,6.029,13.2971,4.59972,2469.947,2020-5-31T10:32:41Z
2020-05-31T08:35:01Z,42.805,6.029,13.2968,4.59972,2469.97,2020-5-31T10:35:44Z
2020-05-31T08:38:04Z,42.805,6.029,13.2970,4.59972,2469.947,2020-5-31T10:38:48Z
2020-05-31T08:41:08Z,42.805,6.029,13.2964,4.59973,2469.947,2020-5-31T10:41:51Z
2020-05-31T08:44:11Z,42.805,6.029,13.2968,4.59972,2469.947,2020-5-31T10:44:54Z
2020-05-31T08:47:14Z,42.805,6.029,13.2971,4.59970,2469.96,2020-5-31T10:47:57Z
2020-05-31T08:50:17Z,42.805,6.029,13.2971,4.59972,2469.947,2020-5-31T10:51:01Z
2020-05-31T08:53:21Z,42.805,6.029,13.2969,4.59973,2469.937,2020-5-31T10:54:04Z
2020-05-31T08:56:24Z,42.805,6.029,13.2968,4.59970,2469.914,2020-5-31T10:57:07Z
2020-05-31T08:59:27Z,42.805,6.029,13.2969,4.59973,2469.923,2020-5-31T11:00:10Z
2020-05-31T09:02:30Z,42.805,6.029,13.2967,4.59972,2469.947,2020-5-31T11:03:14Z
2020-05-31T09:05:34Z,42.805,6.029,13.2970,4.59972,2469.923,2020-5-31T11:06:17Z
2020-05-31T09:08:37Z,42.805,6.029,13.2968,4.59972,2469.923,2020-5-31T11:09:20Z
2020-05-31T09:11:40Z,42.805,6.029,13.2968,4.59973,2469.923,2020-5-31T11:12:23Z
2020-05-31T09:14:43Z,42.805,6.029,13.2968,4.59971,2469.923,2020-5-31T11:15:27Z
2020-05-31T09:17:47Z,42.805,6.029,13.2968,4.59971,2469.9,2020-5-31T11:18:30Z
2020-05-31T09:20:50Z,42.805,6.029,13.2972,4.59971,2469.886,2020-5-31T11:21:33Z
2020-05-31T09:23:53Z,42.805,6.029,13.2967,4.59972,2469.914,2020-5-31T11:24:36Z
2020-05-31T09:26:56Z,42.805,6.029,13.2965,4.59972,2469.96,2020-5-31T11:27:40Z
2020-05-31T09:30:00Z,42.805,6.029,13.2969,4.59971,2469.947,2020-5-31T11:30:43Z
2020-05-31T09:33:03Z,42.805,6.029,13.2968,4.59970,2469.886,2020-5-31T11:33:46Z
2020-05-31T09:36:06Z,42.805,6.029,13.2970,4.59971,2469.923,2020-5-31T11:36:49Z
2020-05-31T09:39:09Z,42.805,6.029,13.2968,4.59971,2469.96,2020-5-31T11:39:53Z
2020-05-31T09:42:13Z,42.805,6.029,13.2969,4.59971,2469.9,2020-5-31T11:42:56Z
2020-05-31T09:45:16Z,42.805,6.029,13.2968,4.59971,2469.947,2020-5-31T11:45:59Z
2020-05-31T09:48:19Z,42.805,6.029,13.2968,4.59971,2469.947,2020-5-31T11:49:02Z
2020-05-31T09:51:22Z,42.805,6.029,13.2970,4.59971,2469.923,2020-5-31T11:52:06Z
2020-05-31T09:54:26Z,42.805,6.029,13.2968,4.59971,2469.937,2020-5-31T11:55:09Z
2020-05-31T09:57:29Z,42.805,6.029,13.2972,4.59971,2469.923,2020-5-31T11:58:12Z
2020-05-31T10:00:32Z,42.805,6.029,13.2973,4.59971,2469.923,2020-5-31T12:01:15Z
2020-05-31T10:03:35Z,42.805,6.029,13.2970,4.59972,2469.937,2020-5-31T12:04:18Z
2020-05-31T10:06:38Z,42.805,6.029,13.2969,4.59972,2469.984,2020-5-31T12:07:22Z
2020-05-31T10:09:42Z,42.805,6.029,13.2966,4.59972,2469.97,2020-5-31T12:10:25Z
2020-05-31T10:12:45Z,42.805,6.029,13.2968,4.59972,2469.96,2020-5-31T12:13:28Z
2020-05-31T10:15:48Z,42.805,6.029,13.2967,4.59970,2469.923,2020-5-31T12:16:31Z
2020-05-31T10:18:51Z,42.805,6.029,13.2967,4.59972,2469.923,2020-5-31T12:19:35Z
2020-05-31T10:21:55Z,42.805,6.029,13.2967,4.59973,2469.923,2020-5-31T12:22:38Z
2020-05-31T10:24:58Z,42.805,6.029,13.2971,4.59973,2469.947,2020-5-31T12:25:41Z
2020-05-31T10:28:01Z,42.805,6.029,13.2970,4.59971,2469.947,2020-5-31T12:28:44Z
2020-05-31T10:31:04Z,42.805,6.029,13.2968,4.59973,2469.97,2020-5-31T12:31:48Z
2020-05-31T10:34:08Z,42.805,6.029,13.2970,4.59972,2469.97,2020-5-31T12:34:51Z
2020-05-31T10:37:11Z,42.805,6.029,13.2968,4.59971,2469.923,2020-5-31T12:37:54Z
2020-05-31T10:40:14Z,42.805,6.029,13.2968,4.59973,2469.947,2020-5-31T12:40:57Z
2020-05-31T10:43:17Z,42.805,6.029,13.2970,4.59972,2469.923,2020-5-31T12:44:00Z
2020-05-31T10:46:20Z,42.805,6.029,13.2971,4.59973,2469.96,2020-5-31T12:47:04Z
2020-05-31T10:49:24Z,42.805,6.029,13.2969,4.59972,2469.96,2020-5-31T12:50:07Z
2020-05-31T10:52:27Z,42.805,6.029,13.2967,4.59971,2469.947,2020-5-31T12:53:10Z
2020-05-31T10:55:30Z,42.805,6.029,13.2971,4.59971,2469.947,2020-5-31T12:56:14Z
2020-05-31T10:58:34Z,42.805,6.029,13.2967,4.59971,2469.923,2020-5-31T12:59:17Z
2020-05-31T11:01:37Z,42.805,6.029,13.2968,4.59971,2469.923,2020-5-31T13:02:20Z
2020-05-31T11:04:40Z,42.805,6.029,13.2966,4.59972,2469.947,2020-5-31T13:05:23Z
2020-05-31T11:07:43Z,42.805,6.029,13.2968,4.59971,2469.947,2020-5-31T13:08:27Z
2020-05-31T11:10:47Z,42.805,6.029,13.2970,4.59971,2469.984,2020-5-31T13:11:30Z
2020-05-31T11:13:50Z,42.805,6.029,13.2971,4.59972,2469.923,2020-5-31T13:14:33Z
2020-05-31T11:16:53Z,42.805,6.029,13.2968,4.59973,2469.97,2020-5-31T13:17:36Z
2020-05-31T11:19:56Z,42.805,6.029,13.2968,4.59972,2469.993,2020-5-31T13:20:40Z
2020-05-31T11:23:00Z,42.805,6.029,13.2967,4.59971,2469.97,2020-5-31T13:23:43Z
2020-05-31T11:26:03Z,42.805,6.029,13.2968,4.59971,2469.993,2020-5-31T13:26:46Z
2020-05-31T11:29:06Z,42.805,6.029,13.2968,4.59971,2469.993,2020-5-31T13:29:49Z
2020-05-31T11:32:09Z,42.805,6.029,13.2971,4.59973,2469.947,2020-5-31T13:32:53Z
2020-05-31T11:35:12Z,42.805,6.029,13.2967,4.59973,2470.007,2020-5-31T13:35:56Z
2020-05-31T11:38:16Z,42.805,6.029,13.2969,4.59971,2469.947,2020-5-31T13:38:59Z
2020-05-31T11:41:19Z,42.805,6.029,13.2969,4.59972,2469.97,2020-5-31T13:42:02Z
2020-05-31T11:44:22Z,42.805,6.029,13.2970,4.59973,2469.993,2020-5-31T13:45:05Z
2020-05-31T11:47:25Z,42.805,6.029,13.2970,4.59972,2470.007,2020-5-31T13:48:09Z
2020-05-31T11:50:29Z,42.805,6.029,13.2969,4.59971,2469.993,2020-5-31T13:51:12Z
2020-05-31T11:53:32Z,42.805,6.029,13.2967,4.59971,2469.97,2020-5-31T13:54:15Z
2020-05-31T11:56:35Z,42.805,6.029,13.2967,4.59971,2469.97,2020-5-31T13:57:19Z
2020-05-31T11:59:39Z,42.805,6.029,13.2967,4.59972,2469.97,2020-5-31T14:00:22Z
2020-05-31T12:02:42Z,42.805,6.029,13.2970,4.59973,2469.97,2020-5-31T14:03:25Z
2020-05-31T12:05:45Z,42.805,6.029,13.2968,4.59970,2469.984,2020-5-31T14:06:28Z
2020-05-31T12:08:48Z,42.805,6.029,13.2971,4.59972,2469.97,2020-5-31T14:09:32Z
2020-05-31T12:11:52Z,42.805,6.029,13.2973,4.59973,2469.993,2020-5-31T14:12:35Z
2020-05-31T12:14:55Z,42.805,6.029,13.2967,4.59973,2469.97,2020-5-31T14:15:38Z
2020-05-31T12:17:58Z,42.805,6.029,13.2969,4.59973,2469.97,2020-5-31T14:18:41Z
2020-05-31T12:21:01Z,42.805,6.029,13.2972,4.59972,2469.993,2020-5-31T14:21:45Z
2020-05-31T12:24:05Z,42.805,6.029,13.2968,4.59971,2469.993,2020-5-31T14:24:48Z
2020-05-31T12:27:08Z,42.805,6.029,13.2967,4.59972,2469.97,2020-5-31T14:27:51Z
2020-05-31T12:30:11Z,42.805,6.029,13.2970,4.59972,2469.993,2020-5-31T14:30:54Z
2020-05-31T12:33:14Z,42.805,6.029,13.2971,4.59971,2470.017,2020-5-31T14:33:57Z
2020-05-31T12:36:18Z,42.805,6.029,13.2965,4.59971,2469.984,2020-5-31T14:37:01Z
2020-05-31T12:39:21Z,42.805,6.029,13.2971,4.59972,2469.993,2020-5-31T14:40:04Z
2020-05-31T12:42:24Z,42.805,6.029,13.2969,4.59971,2469.993,2020-5-31T14:43:07Z
2020-05-31T12:45:28Z,42.805,6.029,13.2967,4.59973,2469.97,2020-5-31T14:46:11Z
2020-05-31T12:48:31Z,42.805,6.029,13.2968,4.59973,2469.993,2020-5-31T14:49:14Z
2020-05-31T12:51:34Z,42.805,6.029,13.2974,4.59973,2470.007,2020-5-31T14:52:17Z
2020-05-31T12:54:37Z,42.805,6.029,13.2967,4.59972,2469.993,2020-5-31T14:55:20Z
2020-05-31T12:57:41Z,42.805,6.029,13.2970,4.59972,2470.017,2020-5-31T14:58:24Z
2020-05-31T13:00:44Z,42.805,6.029,13.2970,4.59972,2469.993,2020-5-31T15:01:27Z
2020-05-31T13:03:47Z,42.805,6.029,13.2970,4.59974,2470.017,2020-5-31T15:04:30Z
2020-05-31T13:06:50Z,42.805,6.029,13.2963,4.59972,2470.007,2020-5-31T15:07:34Z
2020-05-31T13:09:54Z,42.805,6.029,13.2969,4.59972,2470.053,2020-5-31T15:10:37Z
2020-05-31T13:12:57Z,42.805,6.029,13.2970,4.59973,2470.007,2020-5-31T15:13:40Z
2020-05-31T13:16:00Z,42.805,6.029,13.2968,4.59973,2470.017,2020-5-31T15:16:44Z
2020-05-31T13:19:04Z,42.805,6.029,13.2970,4.59971,2470.017,2020-5-31T15:19:47Z
2020-05-31T13:22:07Z,42.805,6.029,13.2968,4.59973,2470.017,2020-5-31T15:22:50Z
2020-05-31T13:25:10Z,42.805,6.029,13.2968,4.59973,2470.04,2020-5-31T15:25:53Z
2020-05-31T13:28:13Z,42.805,6.029,13.2967,4.59971,2470.017,2020-5-31T15:28:57Z
2020-05-31T13:31:17Z,42.805,6.029,13.2966,4.59972,2469.993,2020-5-31T15:32:00Z
2020-05-31T13:34:20Z,42.805,6.029,13.2968,4.59973,2469.993,2020-5-31T15:35:03Z
2020-05-31T13:37:23Z,42.805,6.029,13.2973,4.59971,2470.007,2020-5-31T15:38:06Z
2020-05-31T13:40:26Z,42.805,6.029,13.2968,4.59973,2470.017,2020-5-31T15:41:09Z
2020-05-31T13:43:30Z,42.805,6.029,13.2968,4.59972,2470.017,2020-5-31T15:44:13Z
2020-05-31T13:46:33Z,42.805,6.029,13.2971,4.59973,2470.03,2020-5-31T15:47:16Z
2020-05-31T13:49:36Z,42.805,6.029,13.2967,4.59972,2470.053,2020-5-31T15:50:19Z
2020-05-31T13:52:39Z,42.805,6.029,13.2969,4.59973,2470.017,2020-5-31T15:53:23Z
2020-05-31T13:55:43Z,42.805,6.029,13.2967,4.59972,2470.04,2020-5-31T15:56:26Z
2020-05-31T13:58:46Z,42.805,6.029,13.2967,4.59973,2469.993,2020-5-31T15:59:29Z
2020-05-31T14:01:49Z,42.805,6.029,13.2971,4.59972,2470.017,2020-5-31T16:02:32Z
2020-05-31T14:04:52Z,42.805,6.029,13.2968,4.59971,2470.017,2020-5-31T16:05:36Z
2020-05-31T14:07:56Z,42.805,6.029,13.2968,4.59972,2470.077,2020-5-31T16:08:39Z
2020-05-31T14:10:59Z,42.805,6.029,13.2966,4.59973,2470.017,2020-5-31T16:11:42Z
2020-05-31T14:14:02Z,42.805,6.029,13.2968,4.59973,2469.993,2020-5-31T16:14:45Z
2020-05-31T14:17:05Z,42.805,6.029,13.2966,4.59972,2469.993,2020-5-31T16:17:49Z
2020-05-31T14:20:09Z,42.805,6.029,13.2965,4.59971,2470.04,2020-5-31T16:20:52Z
2020-05-31T14:23:12Z,42.805,6.029,13.2971,4.59970,2470.017,2020-5-31T16:23:55Z
2020-05-31T14:26:15Z,42.805,6.029,13.2974,4.59972,2469.993,2020-5-31T16:26:58Z
2020-05-31T14:29:18Z,42.805,6.029,13.2971,4.59971,2470.03,2020-5-31T16:30:02Z
2020-05-31T14:32:22Z,42.805,6.029,13.2967,4.59971,2470.03,2020-5-31T16:33:05Z
2020-05-31T14:35:25Z,42.805,6.029,13.2972,4.59971,2470.03,2020-5-31T16:36:08Z
2020-05-31T14:38:28Z,42.805,6.029,13.2965,4.59971,2470.017,2020-5-31T16:39:11Z
2020-05-31T14:41:31Z,42.805,6.029,13.2969,4.59971,2470.053,2020-5-31T16:42:14Z
2020-05-31T14:44:34Z,42.805,6.029,13.2973,4.59971,2470.04,2020-5-31T16:45:18Z
2020-05-31T14:47:38Z,42.805,6.029,13.2968,4.59970,2470.053,2020-5-31T16:48:21Z
2020-05-31T14:50:41Z,42.805,6.029,13.2968,4.59971,2470.053,2020-5-31T16:51:24Z
2020-05-31T14:53:44Z,42.805,6.029,13.2968,4.59971,2470.053,2020-5-31T16:54:27Z
2020-05-31T14:56:47Z,42.805,6.029,13.2970,4.59971,2470.04,2020-5-31T16:57:31Z
2020-05-31T14:59:51Z,42.805,6.029,13.2967,4.59971,2470.017,2020-5-31T17:00:34Z
2020-05-31T15:02:54Z,42.805,6.029,13.2971,4.59971,2469.993,2020-5-31T17:03:37Z
2020-05-31T15:05:57Z,42.805,6.029,13.2968,4.59971,2469.993,2020-5-31T17:06:40Z
2020-05-31T15:09:00Z,42.805,6.029,13.2968,4.59971,2470.017,2020-5-31T17:09:44Z
2020-05-31T15:12:04Z,42.805,6.029,13.2969,4.59970,2470.063,2020-5-31T17:12:47Z
2020-05-31T15:15:07Z,42.805,6.029,13.2969,4.59972,2470.003,2020-5-31T17:15:50Z